Location: Killam
(52.7910°N, 111.8608°W)
Time: 15:36:26
(UTC+00:00)

Injun/Solrad 3 - Pass Details

Date: 22 February 2026
Orbit: 872 x 984 km, 66.8° (Epoch: 7 March)

Event Time Altitude Azimuth Distance (km) Brightness Sun altitude
Rises 01:39:38 0° 319° (NW) 3,558 11.5 -7.9°
Reaches altitude 10° 01:42:08 10° 322° (NW) 2,629 10.7 -8.3°
Maximum altitude 01:48:16 75° 48° (NE) 979 7.9 -9.2°
Drops below altitude 10° 01:54:34 10° 134° (SE) 2,693 9.9 -10.2°
Sets 01:57:09 0° 136° (SE) 3,649 10.6 -10.6°
